Wadesboro, NC

9:52 PM EST on February 19, 2018 (GMT -0500)
Anson County

Weather History for KAFP - October, 2011

Change the Weather History Date:

Tuesday, October 25, 2011

  Actual Average (KCLT) Record (KCLT)
Temperature  
Mean Temperature 56 °F -  
Max Temperature 72 °F 68 °F 84 °F (1931)
Min Temperature 41 °F 49 °F 27 °F (2006)
Degree Days  
Heating Degree Days 8    
Growing Degree Days 6 (Base 50)    
Moisture  
Dew Point 43 °F    
Average Humidity 70    
Maximum Humidity 97    
Minimum Humidity 23    
Precipitation  
Precipitation 0.00 in - - ()
Sea Level Pressure  
Sea Level Pressure 30.20 in    
Wind  
Wind Speed 1 mph (NE)    
Max Wind Speed 10 mph    
Max Gust Speed -    
Visibility 9 miles    
Events      
Averages and records for this station are not official NWS values.
T = Trace of Precipitation, MM = Missing Value Source: NWS Daily Summary

Daily Weather History Graph

Daily Weather History Graph

Search for Another Location

Airport or City:

Trip Planner

Search our weather history database for the weather conditions in past years. The results will help you decide how hot, cold, wet, or windy it might be!

Date:

Astronomy

Oct. 25, 2011 Rise Set
Actual Time 7:34 AM EDT 6:33 PM EDT
Civil Twilight 7:08 AM EDT 6:59 PM EDT
Nautical Twilight 6:39 AM EDT 7:29 PM EDT
Astronomical Twilight 6:09 AM EDT 7:58 PM EDT
Moon 6:06 AM EDT (10/25) 5:34 PM EDT (10/25)
Length of Visible Light 11h 50m
Length of Day
10h 58m
Waning Crescent, 2% of the Moon is Illuminated
Oct 25
Waning Crescent
Oct 26
New
Nov 2
First Quarter
Nov 10
Full
Nov 18
Last Quarter

Hourly Weather History & Observations

Time (EDT) Temp. Dew Point Humidity Pressure Visibility Wind Dir Wind Speed Gust Speed Precip Events Conditions
12:15 AM 48.7 °F 46.4 °F 92% 30.12 in 7.0 mi Calm Calm - N/A   Clear
12:35 AM 47.8 °F 45.5 °F 92% 30.13 in 10.0 mi Calm Calm - N/A   Clear
12:55 AM 47.7 °F 45.5 °F 92% 30.13 in 7.0 mi Calm Calm - N/A   Clear
1:15 AM 46.9 °F 45.1 °F 93% 30.13 in 7.0 mi Calm Calm - N/A   Clear
1:35 AM 46.8 °F 45.1 °F 94% 30.13 in 7.0 mi Calm Calm - N/A   Clear
1:55 AM 47.3 °F 45.7 °F 94% 30.14 in 10.0 mi Calm Calm - N/A   Clear
2:15 AM 46.6 °F 45.1 °F 95% 30.14 in 10.0 mi Calm Calm - N/A   Clear
2:35 AM 46.2 °F 44.8 °F 95% 30.15 in 10.0 mi Calm Calm - N/A   Clear
2:55 AM 45.7 °F 44.1 °F 94% 30.15 in 5.0 mi Calm Calm - N/A   Clear
3:15 AM 45.1 °F 43.9 °F 95% 30.15 in 5.0 mi Calm Calm - N/A   Clear
3:35 AM 45.0 °F 43.7 °F 95% 30.15 in 10.0 mi Calm Calm - N/A   Clear
4:15 AM 44.4 °F 43.2 °F 95% 30.16 in 7.0 mi Calm Calm - N/A   Clear
4:35 AM 43.7 °F 42.4 °F 95% 30.16 in 7.0 mi Calm Calm - N/A   Clear
4:55 AM 43.5 °F 42.3 °F 95% 30.17 in 7.0 mi Calm Calm - N/A   Clear
5:15 AM 43.2 °F 42.1 °F 96% 30.17 in 7.0 mi Calm Calm - N/A   Clear
5:35 AM 43.2 °F 42.1 °F 96% 30.18 in 10.0 mi Calm Calm - N/A   Clear
5:55 AM 42.8 °F 41.5 °F 95% 30.18 in 7.0 mi Calm Calm - N/A   Clear
6:15 AM 42.4 °F 41.4 °F 96% 30.19 in 7.0 mi Calm Calm - N/A   Clear
6:35 AM 42.4 °F 41.2 °F 95% 30.20 in 10.0 mi Calm Calm - N/A   Clear
6:55 AM 42.3 °F 41.0 °F 95% 30.21 in 7.0 mi Calm Calm - N/A   Clear
7:15 AM 41.4 °F 40.3 °F 96% 30.21 in 7.0 mi Calm Calm - N/A   Clear
7:35 AM 41.0 °F 39.9 °F 96% 30.22 in 7.0 mi Calm Calm - N/A   Clear
7:55 AM 41.0 °F 39.9 °F 96% 30.23 in 7.0 mi Calm Calm - N/A   Clear
8:15 AM 41.5 °F 40.5 °F 96% 30.23 in 3.0 mi Calm Calm - N/A   Clear
8:35 AM 43.5 °F 42.4 °F 96% 30.25 in 5.0 mi Calm Calm - N/A   Clear
8:55 AM 46.0 °F 45.0 °F 96% 30.26 in 7.0 mi Calm Calm - N/A   Clear
9:15 AM 48.9 °F 48.0 °F 97% 30.26 in 10.0 mi Calm Calm - N/A   Clear
9:35 AM 52.0 °F 49.8 °F 92% 30.27 in 10.0 mi Calm Calm - N/A   Clear
9:55 AM 55.0 °F 50.2 °F 84% 30.27 in 10.0 mi ENE 4.6 mph - N/A   Clear
10:15 AM 57.2 °F 50.0 °F 77% 30.27 in 10.0 mi NE 4.6 mph - N/A   Clear
10:35 AM 59.9 °F 50.2 °F 70% 30.27 in 10.0 mi NE 6.9 mph - N/A   Clear
10:55 AM 61.9 °F 49.5 °F 64% 30.27 in 10.0 mi NNE 8.1 mph - N/A   Clear
11:15 AM 63.9 °F 48.9 °F 58% 30.27 in 10.0 mi NNE 6.9 mph - N/A   Clear
11:35 AM 65.8 °F 48.2 °F 53% 30.27 in 10.0 mi NNE 4.6 mph - N/A   Clear
11:55 AM 67.3 °F 46.6 °F 47% 30.27 in 10.0 mi NE 10.4 mph - N/A   Clear
12:35 PM 68.9 °F 41.7 °F 37% 30.26 in 10.0 mi NNE 9.2 mph - N/A   Clear
12:55 PM 68.9 °F 41.7 °F 37% 30.25 in 10.0 mi ENE 3.5 mph - N/A   Clear
1:15 PM 69.4 °F 41.7 °F 37% 30.24 in 10.0 mi East 4.6 mph - N/A   Clear
1:35 PM 70.5 °F 41.2 °F 35% 30.23 in 10.0 mi East 5.8 mph - N/A   Clear
1:55 PM 70.9 °F 39.6 °F 32% 30.23 in 10.0 mi Calm Calm - N/A   Clear
2:15 PM 70.9 °F 37.6 °F 30% 30.22 in 10.0 mi NE 4.6 mph - N/A   Clear
2:35 PM 71.4 °F 36.7 °F 28% 30.21 in 10.0 mi NNW 4.6 mph - N/A   Clear
3:15 PM 72.1 °F 34.2 °F 25% 30.19 in 10.0 mi North 3.5 mph - N/A   Clear
3:35 PM 72.5 °F 32.9 °F 23% 30.18 in 10.0 mi Calm Calm - N/A   Clear
3:55 PM 72.3 °F 34.0 °F 25% 30.18 in 10.0 mi Calm Calm - N/A   Clear
4:35 PM 72.0 °F 34.9 °F 26% 30.18 in 10.0 mi Calm Calm - N/A   Clear
4:55 PM 72.1 °F 35.1 °F 26% 30.18 in 10.0 mi Calm Calm - N/A   Clear
5:15 PM 72.0 °F 36.3 °F 27% 30.18 in 10.0 mi Calm Calm - N/A   Clear
5:35 PM 71.4 °F 37.9 °F 30% 30.18 in 10.0 mi Calm Calm - N/A   Clear
5:55 PM 70.2 °F 38.5 °F 31% 30.17 in 10.0 mi Calm Calm - N/A   Clear
6:15 PM 68.2 °F 39.9 °F 36% 30.17 in 10.0 mi Calm Calm - N/A   Clear
6:35 PM 63.9 °F 45.7 °F 52% 30.17 in 10.0 mi Calm Calm - N/A   Clear
7:35 PM 56.1 °F 49.5 °F 78% 30.18 in 10.0 mi Calm Calm - N/A   Clear
7:55 PM 54.7 °F 49.1 °F 81% 30.18 in 10.0 mi Calm Calm - N/A   Clear
8:15 PM 53.2 °F 48.7 °F 85% 30.18 in 10.0 mi Calm Calm - N/A   Clear
8:35 PM 51.8 °F 48.7 °F 89% 30.18 in 10.0 mi Calm Calm - N/A   Clear
9:15 PM 50.2 °F 47.8 °F 92% 30.17 in 10.0 mi Calm Calm - N/A   Clear
9:35 PM 49.6 °F 47.3 °F 92% 30.17 in 10.0 mi Calm Calm - N/A   Clear
9:55 PM 48.7 °F 46.6 °F 92% 30.17 in 10.0 mi Calm Calm - N/A   Clear
10:15 PM 48.2 °F 46.0 °F 92% 30.18 in 10.0 mi Calm Calm - N/A   Clear
10:35 PM 47.7 °F 45.7 °F 93% 30.18 in 10.0 mi Calm Calm - N/A   Clear
10:55 PM 47.5 °F 45.5 °F 93% 30.18 in 10.0 mi Calm Calm - N/A   Clear
11:15 PM 46.9 °F 45.0 °F 93% 30.18 in 10.0 mi Calm Calm - N/A   Clear
11:35 PM 46.4 °F 44.4 °F 93% 30.18 in 10.0 mi Calm Calm - N/A   Clear
11:55 PM 45.7 °F 43.9 °F 93% 30.18 in 10.0 mi Calm Calm - N/A   Clear